RH
59 64 66 67 65 63 61 62 61 63 66 68 69 68 69 75 88 90 85 81 70 62 62 58 63 64 65 63 62 65 70 73 72
64 69 69 68 66 65 61 60 62 63 65 66 65 66 80 89 92 93 91 86 71 62 62 62 56 65 64 63 61 62 60 62 63
71 71 70 69 67 67 67 67 68 69 68 67 67 75 82 89 94 95 96 87 75 65 62 62 64 59 58 59 61 60 63 63 64
73 73 72 71 69 68 70 72 70 67 69 72 75 81 85 94 97 91 95 85 76 69 63 63 63 62 62 63 63 63 63 62 63
79 83 82 75 72 72 73 73 70 72 75 77 84 87 89 95 95 97 95 81 75 72 69 68 65 61 64 68 67 68 68 66 65
84 91 87 84 77 75 74 73 76 82 86 87 87 88 96 93 97 96 85 78 74 72 71 72 69 67 68 68 71 68 70 70 72
78 86 89 82 83 85 78 78 80 84 95 97 90 94 92 91 94 91 73 67 62 60 60 63 64 66 68 70 70 70 70 71 73
90 91 89 93 85 84 86 82 75 66 78 74 69 71 70 78 80 70 68 58 55 55 55 59 63 66 68 67 68 71 73 74 77
89 89 89 93 79 74 63 54 48 50 52 56 56 55 58 61 64 70 64 54 53 53 55 58 58 59 61 61 66 66 67 69 72
95 84 64 54 48 48 49 49 55 53 51 51 48 50 53 54 57 59 61 55 49 50 54 51 58 57 56 56 56 58 59 60 62
61 50 49 48 47 47 54 55 56 53 50 42 44 46 47 57 53 42 49 54 52 49 48 52 50 51 50 49 51 53 54 54 53
49 51 51 49 52 50 47 48 51 47 44 44 45 43 47 57 39 37 42 58 51 45 50 47 46 46 44 47 49 50 51 52 54
47 51 57 51 50 50 47 54 51 48 51 50 49 45 45 55 33 34 42 53 47 46 43 41 42 43 45 47 48 50 50 52 50
43 54 54 49 49 50 46 48 58 53 49 43 49 44 48 52 29 36 39 48 44 42 40 41 41 42 45 46 50 51 52 51 50
47 51 49 46 48 48 44 47 51 60 59 43 41 48 56 42 36 40 33 44 35 41 39 42 42 42 43 46 50 51 50 49 49
43 50 48 48 48 47 43 49 53 56 62 56 54 57 53 41 33 46 38 40 32 43 41 34 42 45 43 48 46 48 50 50 50
37 46 47 45 45 45 46 50 51 56 62 60 68 57 49 45 26 42 40 38 39 45 29 40 41 45 50 53 44 47 50 51 52
39 41 44 45 48 49 49 50 48 53 53 57 43 45 56 58 49 33 46 31 46 41 36 43 39 42 53 45 53 48 47 50 55
38 39 40 43 46 44 44 42 49 51 53 59 42 54 56 56 58 52 34 45 32 41 52 47 44 48 48 47 50 47 46 53 57
35 36 37 40 46 43 41 42 42 51 51 55 59 58 57 59 68 47 53 36 32 32 37 47 52 43 42 59 55 46 51 55 58
Wind_Speed
12 11 8 6 4 4 3 1 1 2 4 5 6 6 6 5 3 4 6 6 9 10 10 8 8 10 9 10 10 11 10 10 11
9 8 9 6 4 3 2 1 3 4 6 6 8 6 7 4 4 5 5 6 12 11 10 11 11 12 11 10 11 13 13 14 15
6 9 8 6 5 5 4 4 6 6 7 7 8 9 7 5 5 5 5 10 13 12 11 12 12 12 12 12 13 14 14 15 15
7 8 8 6 6 6 6 6 8 9 9 9 9 8 8 6 4 5 4 10 13 12 11 12 14 14 13 13 14 14 16 17 17
1 7 6 7 7 7 8 9 9 9 10 10 10 9 9 5 5 4 4 14 15 14 14 14 15 14 14 14 15 15 16 17 18
3 4 6 8 8 8 9 10 10 9 9 11 11 10 3 4 3 3 11 14 15 16 16 17 17 19 16 14 14 16 17 18 18
4 4 5 8 8 8 9 11 11 8 3 3 6 3 4 4 4 3 13 13 12 11 12 13 13 13 14 16 17 18 18 20 19
2 1 2 3 4 3 4 4 3 6 4 4 4 5 5 3 3 6 14 13 13 13 12 13 14 12 12 13 15 17 20 21 21
1 1 2 2 1 3 4 3 5 6 6 6 6 6 5 3 3 5 13 13 14 15 14 15 14 14 14 13 15 16 15 14 14
2 3 3 4 4 4 4 4 4 5 6 5 5 5 5 5 3 3 13 14 16 14 15 15 15 16 16 16 16 15 15 16 16
4 5 4 5 4 4 4 4 4 4 4 5 5 5 5 5 5 4 5 15 16 16 15 15 16 18 17 16 16 16 16 16 17
6 5 5 4 4 5 4 4 4 5 5 6 5 5 6 4 6 5 4 5 12 16 15 16 17 19 18 17 17 18 18 18 18
6 5 5 4 4 4 4 4 4 4 5 5 5 4 4 3 6 5 4 4 5 9 15 17 17 19 18 18 19 18 17 18 20
6 5 4 4 5 5 4 4 4 4 6 6 5 4 3 2 4 5 6 6 5 4 10 15 15 18 17 19 16 17 18 20 21
6 5 5 5 5 5 4 5 4 2 4 5 6 5 2 2 3 4 4 4 5 5 4 4 5 17 18 18 17 19 21 21 21
6 5 5 5 5 4 5 3 4 3 5 3 5 4 2 3 4 3 4 4 5 4 4 6 4 5 17 15 21 22 20 23 20
6 6 5 5 4 6 6 5 3 3 5 3 1 5 6 3 10 4 3 5 4 5 8 6 6 5 4 9 21 19 23 21 23
7 6 5 5 4 4 3 3 5 3 3 4 3 4 3 5 3 4 2 9 4 6 8 7 6 6 5 10 12 19 21 23 27
6 6 6 5 3 4 3 3 3 2 2 3 2 1 3 4 7 3 7 4 8 6 5 6 7 6 5 12 16 17 23 27 26
6 6 5 5 3 3 4 4 4 1 0 0 2 2 3 4 4 12 6 9 8 9 7 5 5 7 6 5 8 22 26 25 26
Wind_Direction
176 184 162 160 141 122 115 119 276 297 302 309 300 305 308 321 314 309 303 308 294 295 289 278 246 255 268 271 273 269 264 269 252
197 180 161 171 163 167 195 262 289 293 289 286 304 299 281 271 267 272 276 279 287 284 276 281 266 245 253 269 263 264 266 267 271
153 157 170 186 203 216 232 263 276 283 285 286 285 285 284 276 265 263 264 275 284 280 272 275 281 263 261 268 272 275 274 269 266
154 171 190 214 239 240 256 277 287 292 295 294 289 284 279 271 258 263 256 271 280 275 273 273 269 268 262 262 262 263 266 275 266
1 194 206 234 249 261 278 287 293 295 294 294 289 287 290 283 279 273 270 283 287 283 274 269 272 268 259 252 254 257 262 267 270
243 206 223 255 264 273 290 298 292 288 298 309 316 314 288 281 278 278 282 296 297 294 292 286 276 272 269 262 256 262 265 267 256
226 240 264 269 288 312 315 320 328 345 332 321 338 353 343 349 333 315 341 346 341 344 336 336 333 315 285 275 270 266 267 268 269
282 283 330 331 317 311 327 333 13 29 28 27 23 29 29 14 8 2 10 11 10 7 2 3 359 342 325 307 298 293 284 280 281
67 50 356 353 12 50 48 41 34 27 24 31 29 22 16 9 1 10 15 19 21 15 16 12 6 8 13 13 21 16 12 7 358
98 101 83 60 44 43 42 38 30 20 16 21 24 25 13 6 21 13 17 32 20 18 25 8 21 17 11 7 0 4 2 1 357
92 82 61 55 48 41 47 46 33 17 4 2 9 20 8 25 36 14 10 30 25 20 16 17 16 14 2 355 352 356 352 349 341
93 78 68 50 55 59 37 37 33 22 360 357 355 7 8 35 33 14 20 15 26 20 28 17 11 1 355 354 348 345 346 343 338
86 89 74 55 55 53 48 28 26 11 3 338 332 358 356 23 31 18 19 8 25 17 22 12 9 0 353 351 341 340 337 338 329
89 82 75 60 56 44 32 33 45 14 354 331 320 345 332 27 11 25 14 17 19 5 7 10 360 356 351 341 339 335 335 330 325
84 76 65 60 59 39 30 41 20 37 344 320 314 319 311 31 3 11 6 22 359 354 345 337 331 347 344 340 335 330 327 325 322
78 74 65 56 64 54 33 19 21 349 355 351 333 328 6 287 351 0 349 2 354 335 346 343 328 320 331 332 326 323 322 320 316
81 84 72 63 65 45 38 41 6 354 22 355 312 344 330 339 324 323 340 336 328 342 330 310 302 300 302 313 323 319 318 315 314
81 78 79 69 70 66 56 49 53 9 334 38 67 346 297 318 316 312 303 334 319 310 302 293 289 293 291 313 305 311 312 311 310
81 83 77 77 75 62 38 55 63 83 12 328 26 245 235 308 317 290 303 297 310 287 280 284 284 282 278 293 299 304 307 309 306
74 79 83 77 65 64 60 41 30 49 30 283 321 289 268 256 264 300 307 304 310 303 289 279 273 278 277 274 278 301 309 303 304